Weather History for Broomfield, CO

Change the Weather History Date:

Friday, March 22, 2013

  Actual Average Record
Temperature  
Mean Temperature 38 °F -  
Max Temperature 48 °F 53 °F 116 °F (2001)
Min Temperature 28 °F 32 °F 8 °F (1985)
Degree Days  
Heating Degree Days 27    
Moisture  
Dew Point 15 °F    
Average Humidity 50    
Maximum Humidity 93    
Minimum Humidity 25    
Precipitation  
Precipitation 0.00 in - - ()
Sea Level Pressure  
Sea Level Pressure 29.78 in    
Wind  
Wind Speed 13 mph (NE)    
Max Wind Speed 30 mph    
Max Gust Speed 36 mph    
Visibility 8 miles    
Events Snow    
Averages and records for this station are not official NWS values.
T = Trace of Precipitation, MM = Missing Value Source: NWS Daily Summary

Daily Weather History Graph

Daily Weather History Graph

Search for Another Location

Airport:

Trip Planner

Search our weather history database for the weather conditions in past years. The results will help you decide how hot, cold, wet, or windy it might be!

Date:

Astronomy

Mar. 22, 2013 Rise Set
Actual Time 7:00 AM MDT 7:14 PM MDT
Civil Twilight 6:33 AM MDT 7:41 PM MDT
Nautical Twilight 6:01 AM MDT 8:13 PM MDT
Astronomical Twilight 5:29 AM MDT 8:45 PM MDT
Moon 2:44 PM MDT (3/22) 4:01 AM MDT (3/22)
Length of Visible Light 13h 08m
Length of Day
12h 14m
Waxing Gibbous, 78% of the Moon is Illuminated
Mar 22
Waxing Gibbous
Mar 27
Full
Apr 2
Last Quarter
Apr 10
New
Apr 18
First Quarter

Hourly Weather History & Observations

Time (MDT) Temp. Windchill Dew Point Humidity Pressure Visibility Wind Dir Wind Speed Gust Speed Precip Events Conditions
12:15 AM 37.4 °F 25.0 °F 5.0 °F 26% 29.79 in 10.0 mi West 29.9 mph 33.4 mph N/A   Clear
12:35 AM 37.4 °F 26.4 °F 5.0 °F 26% 29.79 in 10.0 mi West 23.0 mph 33.4 mph N/A   Clear
12:55 AM 37.4 °F 26.9 °F 5.0 °F 26% 29.79 in 10.0 mi West 20.7 mph 28.8 mph N/A   Clear
1:15 AM 35.6 °F 29.2 °F 5.0 °F 28% 29.80 in 10.0 mi East 8.1 mph - N/A   Clear
1:35 AM 32.0 °F 25.6 °F 6.8 °F 35% 29.81 in 10.0 mi ESE 6.9 mph - N/A   Clear
1:55 AM 32.0 °F 26.4 °F 8.6 °F 38% 29.83 in 10.0 mi ESE 5.8 mph - N/A   Clear
2:15 AM 32.0 °F 26.4 °F 8.6 °F 38% 29.83 in 10.0 mi ESE 5.8 mph - N/A   Clear
2:35 AM 32.0 °F 26.4 °F 8.6 °F 38% 29.83 in 10.0 mi East 5.8 mph - N/A   Clear
2:55 AM 32.0 °F - 8.6 °F 38% 29.83 in 10.0 mi Calm Calm - N/A   Clear
3:14 AM 30.2 °F - 10.4 °F 44% 29.83 in 10.0 mi Calm Calm - N/A   Clear
3:35 AM 30.2 °F - 10.4 °F 44% 29.83 in 10.0 mi Calm Calm - N/A   Clear
3:55 AM 30.2 °F 25.4 °F 10.4 °F 44% 29.81 in 10.0 mi SE 4.6 mph - N/A   Clear
4:15 AM 30.2 °F 23.4 °F 12.2 °F 47% 29.81 in 10.0 mi SE 6.9 mph - N/A   Clear
4:35 AM 30.2 °F - 12.2 °F 47% 29.81 in 10.0 mi Calm Calm - N/A   Clear
4:55 AM 30.2 °F 26.7 °F 12.2 °F 47% 29.80 in 10.0 mi SSW 3.5 mph - N/A   Clear
5:15 AM 30.2 °F - 12.2 °F 47% 29.81 in 10.0 mi Calm Calm - N/A   Clear
5:35 AM 30.2 °F 26.7 °F 12.2 °F 47% 29.80 in 10.0 mi SSW 3.5 mph - N/A   Clear
5:50 AM 30.2 °F 21.3 °F 14.0 °F 51% 29.80 in 20.0 mi ESE 10.4 mph - N/A   Overcast
5:54 AM 30.2 °F 22.6 °F 14.0 °F 51% 29.80 in 10.0 mi SE 8.1 mph - N/A   Mostly Cloudy
6:50 AM 28.4 °F 23.3 °F 10.4 °F 47% 29.81 in 50.0 mi SE 4.6 mph - N/A   Mostly Cloudy
7:52 AM 28.4 °F 23.3 °F 8.6 °F 43% 29.80 in 40.0 mi Variable 4.6 mph - N/A   Mostly Cloudy
8:50 AM 32.0 °F 22.1 °F 10.4 °F 41% 29.79 in 40.0 mi ESE 13.8 mph - N/A   Mostly Cloudy
9:47 AM 35.6 °F 29.9 °F 14.0 °F 41% 29.77 in 40.0 mi East 6.9 mph - N/A   Mostly Cloudy
10:16 AM 37.4 °F 32.8 °F 14.0 °F 38% 29.76 in 40.0 mi NE 5.8 mph - N/A   Mostly Cloudy
10:47 AM 37.4 °F 33.8 °F 15.8 °F 41% 29.76 in 40.0 mi NNE 4.6 mph - N/A   Mostly Cloudy
11:50 AM 41.0 °F 36.4 °F 17.6 °F 39% 29.73 in 30.0 mi Variable 6.9 mph - N/A   Scattered Clouds
12:53 PM 46.4 °F 43.5 °F 15.8 °F 29% 29.68 in 30.0 mi NNE 5.8 mph - N/A   Mostly Cloudy
1:24 PM 48.2 °F - 14.0 °F 25% 29.66 in 30.0 mi ENE 27.6 mph 35.7 mph N/A   Mostly Cloudy
1:49 PM 46.4 °F 37.9 °F 14.0 °F 27% 29.66 in 30.0 mi East 25.3 mph 32.2 mph N/A   Mostly Cloudy
2:51 PM 44.6 °F 37.2 °F 15.8 °F 31% 29.65 in 30.0 mi ENE 17.3 mph 25.3 mph N/A   Mostly Cloudy
3:48 PM 41.0 °F 33.1 °F 17.6 °F 39% 29.67 in 20.0 mi NE 15.0 mph 19.6 mph N/A   Overcast
4:08 PM 41.0 °F 31.4 °F 17.6 °F 39% 29.68 in 10.0 mi North 21.9 mph 25.3 mph N/A   Overcast
4:45 PM 33.8 °F 21.0 °F 28.4 °F 81% 29.71 in 2.5 mi NNW 25.3 mph 32.2 mph N/A Snow Light Snow
5:10 PM 32.0 °F 19.5 °F 28.4 °F 87% 29.73 in 1.0 mi NNW 21.9 mph 28.8 mph N/A Snow Snow
5:50 PM 32.0 °F 20.5 °F 28.4 °F 87% 29.74 in 2.0 mi NNW 18.4 mph 26.5 mph N/A Snow Light Snow
6:50 PM 30.2 °F 18.5 °F 28.4 °F 93% 29.76 in 1.8 mi North 17.3 mph - N/A Snow Light Snow
7:50 PM 30.2 °F 21.3 °F 28.4 °F 93% 29.79 in 1.2 mi NNW 10.4 mph - N/A Snow Light Snow
8:45 PM 28.4 °F 18.0 °F 26.6 °F 93% 29.82 in 3.0 mi North 12.7 mph - N/A Snow Light Snow
11:15 PM 28.4 °F 19.7 °F 26.6 °F 93% 29.87 in 1.0 mi North 9.2 mph - N/A Snow Snow
11:34 PM 28.4 °F 19.7 °F 26.6 °F 93% 29.88 in 1.0 mi North 9.2 mph - N/A Snow Light Snow
11:55 PM 28.4 °F 19.1 °F 26.6 °F 93% 29.89 in 0.8 mi NNE 10.4 mph - N/A Snow Snow